Location: Unspecified
(0.0000°N, 0.0000°E)
Time: 13:42:01
(UTC+02:00)

BREEZE-M DEB (TANK) - Visible Passes

Search period start: 18 September 2014 00:00
Search period end: 28 September 2014 00:00
Orbit: 331 x 16420 km, 49.5° (Epoch: 17 September)

Date Brightness Start Highest point End Pass type
(mag) Time Alt. Az. Time Alt. Az. Time Alt. Az.
18 Sep 8.2 00:00:00 22° WNW 00:12:25 22° WNW 02:20:07 10° N visible
18 Sep 8.6 18:15:49 10° SSW 19:18:13 79° ESE 21:47:26 10° NNE visible
19 Sep 7.9 02:48:31 10° NNW 02:59:21 10° NNW 03:06:21 10° N visible
19 Sep 8.9 19:04:47 10° SSW 20:10:05 83° WNW 22:39:45 10° NNE visible
20 Sep 8.7 19:54:58 10° SW 21:03:44 65° WNW 23:30:58 10° NNE visible
21 Sep 6.9 04:52:03 10° N 04:56:45 11° NNE 05:00:00 10° NNE visible
21 Sep 8.6 20:47:09 10° SW 21:58:34 48° WNW 00:21:30 10° NNE visible
22 Sep 6.1 05:40:35 10° NNW 05:48:27 18° NNE 05:52:14 10° ENE visible
22 Sep 8.3 21:43:21 10° WSW 22:54:38 33° WNW 01:11:40 10° NNE visible
23 Sep 4.5 06:30:05 10° NNW 06:38:33 35° NE 06:41:42 10° ESE visible
23 Sep 8.3 17:07:21 10° SSW 18:02:31 65° ESE 20:32:40 10° NNE visible
23 Sep 8.1 22:50:57 10° W 23:54:00 19° WNW 02:01:45 10° N visible
24 Sep 2.4 07:20:18 10° NW 07:27:00 66° SW 07:29:39 10° SSE visible
24 Sep 8.6 17:55:27 10° SSW 18:53:04 84° ESE 21:26:42 10° NNE visible
25 Sep 7.7 02:33:55 10° NNW 02:45:36 11° N 02:52:48 10° N visible
25 Sep 8.8 18:44:31 10° SW 19:45:59 78° WNW 22:19:06 10° NNE visible
26 Sep 7.3 03:38:01 10° N 03:44:32 11° N 03:48:56 10° NNE visible
26 Sep 8.7 19:34:55 10° SW 20:40:38 60° WNW 23:10:31 10° NNE visible
27 Sep 6.6 04:28:44 10° NNW 04:37:54 15° NNE 04:42:36 10° NE visible
27 Sep 8.7 20:27:37 10° WSW 21:36:30 44° WNW 00:00:00 11° NNE visible
